Time,TemperatureF,DewpointF,PressureIn,WindDirection,WindDirectionDegrees,WindSpeedMPH,WindSpeedGustMPH,Humidity,HourlyPrecipIn,Conditions,Clouds,dailyrainin,SolarRadiationWatts/m^2,SoftwareType,DateUTC
2013-07-20 00:01:00,84.5,76.1,29.79,SW,226,0.0,0.0,76,0.00,,---,0.00,0.00,VWS V14.01,2013-07-20 04:01:00,
2013-07-20 00:02:00,84.5,76.1,29.79,SW,226,0.0,0.0,76,0.00,,---,0.00,0.00,VWS V14.01,2013-07-20 04:02:00,
2013-07-20 00:07:00,84.4,76.4,29.79,SSW,211,0.0,0.0,77,0.00,,---,0.00,0.00,VWS V14.01,2013-07-20 04:07:00,
2013-07-20 00:12:00,84.3,76.3,29.79,SSW,213,0.0,0.0,77,0.00,,---,0.00,0.00,VWS V14.01,2013-07-20 04:12:00,
2013-07-20 00:17:00,84.3,76.3,29.79,SSW,213,0.0,0.0,77,0.00,,---,0.00,0.00,VWS V14.01,2013-07-20 04:17:00,
2013-07-20 00:22:00,84.4,76.4,29.79,SW,232,0.0,0.0,77,0.00,,---,0.00,0.00,VWS V14.01,2013-07-20 04:22:00,
2013-07-20 00:27:00,84.6,76.2,29.80,West,281,0.0,0.0,76,0.00,,---,0.00,0.00,VWS V14.01,2013-07-20 04:27:00,
2013-07-20 00:32:00,84.5,76.1,29.80,SSW,202,0.0,0.0,76,0.00,,---,0.00,0.00,VWS V14.01,2013-07-20 04:32:00,
2013-07-20 00:37:00,84.5,76.1,29.80,WNW,295,0.0,0.0,76,0.00,,---,0.00,0.00,VWS V14.01,2013-07-20 04:37:00,
2013-07-20 00:42:00,84.5,76.1,29.80,WSW,256,0.0,0.0,76,0.00,,---,0.00,0.00,VWS V14.01,2013-07-20 04:42:00,
2013-07-20 00:47:00,84.5,76.1,29.80,West,267,0.0,0.0,76,0.00,,---,0.00,0.00,VWS V14.01,2013-07-20 04:47:00,
2013-07-20 00:52:00,84.4,76.0,29.81,WNW,298,0.0,0.0,76,0.00,,---,0.00,0.00,VWS V14.01,2013-07-20 04:52:00,
2013-07-20 00:57:00,84.3,75.9,29.80,WNW,300,0.0,0.0,76,0.00,,---,0.00,0.00,VWS V14.01,2013-07-20 04:57:00,
2013-07-20 01:02:00,84.1,75.7,29.80,SSW,202,0.0,0.0,76,0.00,,---,0.00,0.00,VWS V14.01,2013-07-20 05:02:00,
2013-07-20 01:07:00,83.8,75.0,29.80,SW,232,0.0,0.0,75,0.00,,---,0.00,0.00,VWS V14.01,2013-07-20 05:07:00,
2013-07-20 01:12:00,83.9,75.1,29.81,WNW,299,0.0,0.0,75,0.00,,---,0.00,0.00,VWS V14.01,2013-07-20 05:12:00,
2013-07-20 01:17:00,83.9,74.7,29.80,West,277,0.0,0.0,74,0.00,,---,0.00,0.00,VWS V14.01,2013-07-20 05:17:00,
2013-07-20 01:22:00,83.6,74.4,29.80,WSW,251,0.0,0.0,74,0.00,,---,0.00,0.00,VWS V14.01,2013-07-20 05:22:00,
2013-07-20 01:27:00,83.6,74.4,29.80,SW,236,0.0,0.0,74,0.00,,---,0.00,0.00,VWS V14.01,2013-07-20 05:27:00,
2013-07-20 01:32:00,83.5,74.3,29.80,WNW,301,0.0,0.0,74,0.00,,---,0.00,0.00,VWS V14.01,2013-07-20 05:32:00,
2013-07-20 01:37:00,83.3,74.2,29.80,SW,219,0.0,0.0,74,0.00,,---,0.00,0.00,VWS V14.01,2013-07-20 05:37:00,
2013-07-20 01:42:00,83.3,74.2,29.81,WSW,258,0.0,0.0,74,0.00,,---,0.00,0.00,VWS V14.01,2013-07-20 05:42:00,
2013-07-20 01:47:00,83.2,74.1,29.80,WSW,256,0.0,0.0,74,0.00,,---,0.00,0.00,VWS V14.01,2013-07-20 05:47:00,
2013-07-20 01:52:00,83.1,73.6,29.81,SSW,213,0.0,0.0,73,0.00,,---,0.00,0.00,VWS V14.01,2013-07-20 05:52:00,
2013-07-20 01:57:00,83.0,73.5,29.81,WNW,288,0.0,0.0,73,0.00,,---,0.00,0.00,VWS V14.01,2013-07-20 05:57:00,
2013-07-20 02:02:00,83.0,73.5,29.80,WNW,292,0.0,0.0,73,0.00,,---,0.00,0.00,VWS V14.01,2013-07-20 06:02:00,
2013-07-20 02:07:00,83.1,73.1,29.80,West,275,0.0,0.0,72,0.00,,---,0.00,0.00,VWS V14.01,2013-07-20 06:07:00,
2013-07-20 02:12:00,83.0,73.1,29.80,WNW,298,0.0,0.0,72,0.00,,---,0.00,0.00,VWS V14.01,2013-07-20 06:12:00,
2013-07-20 02:17:00,82.8,72.9,29.80,WNW,294,0.0,0.0,72,0.00,,---,0.00,0.00,VWS V14.01,2013-07-20 06:17:00,
2013-07-20 02:22:00,82.5,72.6,29.80,WSW,250,0.0,0.0,72,0.00,,---,0.00,0.00,VWS V14.01,2013-07-20 06:22:00,
2013-07-20 02:27:00,82.4,72.5,29.79,SW,218,0.0,0.0,72,0.00,,---,0.00,0.00,VWS V14.01,2013-07-20 06:27:00,
2013-07-20 02:32:00,82.4,72.5,29.79,WNW,285,0.0,0.0,72,0.00,,---,0.00,0.00,VWS V14.01,2013-07-20 06:32:00,
2013-07-20 02:37:00,82.5,72.2,29.79,WNW,295,0.0,0.0,71,0.00,,---,0.00,0.00,VWS V14.01,2013-07-20 06:37:00,
2013-07-20 02:42:00,82.1,72.2,29.78,West,261,0.0,0.0,72,0.00,,---,0.00,0.00,VWS V14.01,2013-07-20 06:42:00,
2013-07-20 02:47:00,81.7,72.2,29.78,SW,221,0.0,0.0,73,0.00,,---,0.00,0.00,VWS V14.01,2013-07-20 06:47:00,
2013-07-20 02:52:00,81.6,71.7,29.78,WSW,239,0.0,0.0,72,0.00,,---,0.00,0.00,VWS V14.01,2013-07-20 06:52:00,
2013-07-20 02:57:00,81.3,71.4,29.77,SW,235,0.0,0.0,72,0.00,,---,0.00,0.00,VWS V14.01,2013-07-20 06:57:00,
2013-07-20 03:02:00,81.1,71.6,29.78,SSW,213,0.0,0.0,73,0.00,,---,0.00,0.00,VWS V14.01,2013-07-20 07:02:00,
2013-07-20 03:07:00,80.8,71.3,29.78,WSW,244,0.0,0.0,73,0.00,,---,0.00,0.00,VWS V14.01,2013-07-20 07:07:00,
2013-07-20 03:12:00,80.7,71.7,29.78,West,268,0.0,0.0,74,0.00,,---,0.00,0.00,VWS V14.01,2013-07-20 07:12:00,
2013-07-20 03:17:00,80.3,71.3,29.78,West,268,0.0,0.0,74,0.00,,---,0.00,0.00,VWS V14.01,2013-07-20 07:17:00,
2013-07-20 03:22:00,80.0,71.0,29.78,SSW,207,0.0,0.0,74,0.00,,---,0.00,0.00,VWS V14.01,2013-07-20 07:22:00,
2013-07-20 03:27:00,79.8,70.8,29.78,SSW,207,0.0,0.0,74,0.00,,---,0.00,0.00,VWS V14.01,2013-07-20 07:27:00,
2013-07-20 03:32:00,79.7,70.7,29.78,SW,229,0.0,0.0,74,0.00,,---,0.00,0.00,VWS V14.01,2013-07-20 07:32:00,
2013-07-20 03:37:00,79.6,70.6,29.78,WSW,244,0.0,0.0,74,0.00,,---,0.00,0.00,VWS V14.01,2013-07-20 07:37:00,
2013-07-20 03:42:00,79.5,70.5,29.77,SW,234,0.0,0.0,74,0.00,,---,0.00,0.00,VWS V14.01,2013-07-20 07:42:00,
2013-07-20 03:47:00,79.3,70.3,29.77,WSW,241,0.0,0.0,74,0.00,,---,0.00,0.00,VWS V14.01,2013-07-20 07:47:00,
2013-07-20 03:52:00,79.2,70.2,29.77,SW,222,0.0,0.0,74,0.00,,---,0.00,0.00,VWS V14.01,2013-07-20 07:52:00,
2013-07-20 03:57:00,79.1,70.5,29.77,SSW,211,0.0,0.0,75,0.00,,---,0.00,0.00,VWS V14.01,2013-07-20 07:57:00,
2013-07-20 04:02:00,78.9,70.3,29.77,SW,233,0.0,0.0,75,0.00,,---,0.00,0.00,VWS V14.01,2013-07-20 08:02:00,
2013-07-20 04:07:00,79.1,70.5,29.77,WSW,246,0.0,0.0,75,0.00,,---,0.00,0.00,VWS V14.01,2013-07-20 08:07:00,
2013-07-20 04:12:00,79.1,70.5,29.77,WSW,242,0.0,0.0,75,0.00,,---,0.00,0.00,VWS V14.01,2013-07-20 08:12:00,
2013-07-20 04:17:00,78.9,70.3,29.76,West,265,0.0,0.0,75,0.00,,---,0.00,0.00,VWS V14.01,2013-07-20 08:17:00,
2013-07-20 04:22:00,78.7,70.1,29.76,WSW,240,0.0,0.0,75,0.00,,---,0.00,0.00,VWS V14.01,2013-07-20 08:22:00,
2013-07-20 04:27:00,78.5,70.3,29.76,WSW,253,0.0,0.0,76,0.00,,---,0.00,0.00,VWS V14.01,2013-07-20 08:27:00,
2013-07-20 04:32:00,78.5,70.3,29.76,WSW,245,0.0,0.0,76,0.00,,---,0.00,0.00,VWS V14.01,2013-07-20 08:32:00,
2013-07-20 04:37:00,78.3,70.1,29.76,West,261,0.0,0.0,76,0.00,,---,0.00,0.00,VWS V14.01,2013-07-20 08:37:00,
2013-07-20 04:42:00,78.3,70.1,29.76,WSW,247,0.0,0.0,76,0.00,,---,0.00,0.00,VWS V14.01,2013-07-20 08:42:00,
2013-07-20 04:47:00,78.3,70.1,29.76,SW,236,0.0,0.0,76,0.00,,---,0.00,0.00,VWS V14.01,2013-07-20 08:47:00,
2013-07-20 04:52:00,78.2,70.0,29.76,SW,225,0.0,0.0,76,0.00,,---,0.00,0.00,VWS V14.01,2013-07-20 08:52:00,
2013-07-20 04:57:00,78.3,70.1,29.76,SW,229,0.0,0.0,76,0.00,,---,0.00,0.00,VWS V14.01,2013-07-20 08:57:00,
2013-07-20 05:02:00,78.1,69.9,29.76,SW,231,0.0,0.0,76,0.00,,---,0.00,0.00,VWS V14.01,2013-07-20 09:02:00,
2013-07-20 05:07:00,78.0,69.8,29.76,SW,228,0.0,0.0,76,0.00,,---,0.00,0.00,VWS V14.01,2013-07-20 09:07:00,
2013-07-20 05:12:00,77.8,70.0,29.76,WSW,241,0.0,0.0,77,0.00,,---,0.00,0.00,VWS V14.01,2013-07-20 09:12:00,
2013-07-20 05:17:00,77.8,70.0,29.77,SSW,211,0.0,0.0,77,0.00,,---,0.00,0.00,VWS V14.01,2013-07-20 09:17:00,
2013-07-20 05:22:00,77.9,70.1,29.77,WNW,284,0.0,0.0,77,0.00,,---,0.00,0.00,VWS V14.01,2013-07-20 09:22:00,
2013-07-20 05:27:00,77.9,69.7,29.77,SW,225,0.0,0.0,76,0.00,,---,0.00,0.00,VWS V14.01,2013-07-20 09:27:00,
2013-07-20 05:32:00,77.9,69.7,29.77,WSW,246,0.0,0.0,76,0.00,,---,0.00,0.00,VWS V14.01,2013-07-20 09:32:00,
2013-07-20 05:37:00,78.0,69.8,29.77,SSW,207,0.0,0.0,76,0.00,,---,0.00,0.00,VWS V14.01,2013-07-20 09:37:00,
2013-07-20 05:42:00,77.9,69.7,29.78,SW,232,0.0,0.0,76,0.00,,---,0.00,0.00,VWS V14.01,2013-07-20 09:42:00,
2013-07-20 05:47:00,78.0,69.8,29.78,WSW,238,0.0,0.0,76,0.00,,---,0.00,5.00,VWS V14.01,2013-07-20 09:47:00,
2013-07-20 05:52:00,78.1,69.9,29.78,WSW,250,0.0,0.0,76,0.00,,---,0.00,9.00,VWS V14.01,2013-07-20 09:52:00,
2013-07-20 05:57:00,78.1,69.5,29.78,SSW,195,0.0,0.0,75,0.00,,---,0.00,16.00,VWS V14.01,2013-07-20 09:57:00,
2013-07-20 06:02:00,78.3,69.7,29.78,SW,223,0.0,0.0,75,0.00,,---,0.00,18.00,VWS V14.01,2013-07-20 10:02:00,
2013-07-20 06:07:00,78.4,69.8,29.78,WSW,243,0.0,0.0,75,0.00,,---,0.00,21.00,VWS V14.01,2013-07-20 10:07:00,
2013-07-20 06:12:00,78.5,69.9,29.78,WNW,291,0.0,0.0,75,0.00,,---,0.00,23.00,VWS V14.01,2013-07-20 10:12:00,
2013-07-20 06:17:00,78.6,69.6,29.78,WSW,240,0.0,0.0,74,0.00,,---,0.00,28.00,VWS V14.01,2013-07-20 10:17:00,
2013-07-20 06:22:00,78.7,70.1,29.79,WNW,301,0.0,0.0,75,0.00,,---,0.00,30.00,VWS V14.01,2013-07-20 10:22:00,
2013-07-20 06:27:00,78.6,70.0,29.79,SW,235,0.0,0.0,75,0.00,,---,0.00,39.00,VWS V14.01,2013-07-20 10:27:00,
2013-07-20 06:32:00,78.6,70.0,29.78,WSW,250,0.0,0.0,75,0.00,,---,0.00,33.00,VWS V14.01,2013-07-20 10:32:00,
2013-07-20 06:37:00,78.6,70.0,29.78,WSW,248,0.0,0.0,75,0.00,,---,0.00,32.00,VWS V14.01,2013-07-20 10:37:00,
2013-07-20 06:42:00,78.6,70.0,29.78,SW,225,0.0,0.0,75,0.00,,---,0.00,37.00,VWS V14.01,2013-07-20 10:42:00,
2013-07-20 06:47:00,78.4,69.8,29.78,SW,217,0.0,0.0,75,0.00,,---,0.00,33.00,VWS V14.01,2013-07-20 10:47:00,
2013-07-20 06:52:00,78.3,70.1,29.79,WSW,253,0.0,0.0,76,0.00,,---,0.00,40.00,VWS V14.01,2013-07-20 10:52:00,
2013-07-20 06:57:00,78.2,70.0,29.79,WSW,254,0.0,0.0,76,0.00,,---,0.00,54.00,VWS V14.01,2013-07-20 10:57:00,
2013-07-20 07:02:00,78.0,69.8,29.79,WSW,246,0.0,0.0,76,0.00,,---,0.00,77.00,VWS V14.01,2013-07-20 11:02:00,
2013-07-20 07:07:00,78.0,70.2,29.79,SSW,204,0.0,0.0,77,0.00,,---,0.00,93.00,VWS V14.01,2013-07-20 11:07:00,
2013-07-20 07:12:00,78.1,69.9,29.79,SW,215,0.0,0.0,76,0.00,,---,0.00,95.00,VWS V14.01,2013-07-20 11:12:00,
2013-07-20 07:17:00,78.0,70.2,29.79,SW,231,0.0,0.0,77,0.00,,---,0.00,98.00,VWS V14.01,2013-07-20 11:17:00,
2013-07-20 07:22:00,78.2,70.4,29.79,SW,233,0.0,0.0,77,0.00,,---,0.00,95.00,VWS V14.01,2013-07-20 11:22:00,
2013-07-20 07:27:00,78.4,70.6,29.80,WSW,249,0.0,0.0,77,0.00,,---,0.00,95.00,VWS V14.01,2013-07-20 11:27:00,
2013-07-20 07:32:00,78.3,70.1,29.80,SSW,212,0.0,0.0,76,0.00,,---,0.00,102.00,VWS V14.01,2013-07-20 11:32:00,
2013-07-20 07:37:00,78.3,70.5,29.80,WSW,246,0.0,0.0,77,0.00,,---,0.00,125.00,VWS V14.01,2013-07-20 11:37:00,
2013-07-20 07:42:00,78.3,70.5,29.80,SW,223,0.0,0.0,77,0.00,,---,0.00,132.00,VWS V14.01,2013-07-20 11:42:00,
2013-07-20 07:47:00,78.3,70.5,29.80,West,263,0.0,0.0,77,0.00,,---,0.00,139.00,VWS V14.01,2013-07-20 11:47:00,
2013-07-20 07:52:00,78.7,70.5,29.80,SSW,198,0.0,0.0,76,0.00,,---,0.00,132.00,VWS V14.01,2013-07-20 11:52:00,
2013-07-20 07:57:00,78.7,70.5,29.81,West,271,0.0,0.0,76,0.00,,---,0.00,137.00,VWS V14.01,2013-07-20 11:57:00,
2013-07-20 08:02:00,78.9,70.7,29.80,WSW,253,0.0,0.0,76,0.00,,---,0.00,151.00,VWS V14.01,2013-07-20 12:02:00,
2013-07-20 08:07:00,78.9,70.7,29.80,WSW,250,0.0,0.0,76,0.00,,---,0.00,171.00,VWS V14.01,2013-07-20 12:07:00,
2013-07-20 08:12:00,79.1,70.9,29.80,SW,223,0.0,0.0,76,0.00,,---,0.00,171.00,VWS V14.01,2013-07-20 12:12:00,
2013-07-20 08:17:00,79.4,70.8,29.80,SW,234,0.0,0.0,75,0.00,,---,0.00,216.00,VWS V14.01,2013-07-20 12:17:00,
2013-07-20 08:22:00,79.3,70.7,29.80,SSW,196,0.0,0.0,75,0.00,,---,0.00,288.00,VWS V14.01,2013-07-20 12:22:00,
2013-07-20 08:27:00,79.7,71.1,29.79,NW,313,0.0,0.0,75,0.00,,---,0.00,327.00,VWS V14.01,2013-07-20 12:27:00,
2013-07-20 08:32:00,80.3,71.3,29.79,West,265,0.0,0.0,74,0.00,,---,0.00,348.00,VWS V14.01,2013-07-20 12:32:00,
2013-07-20 08:37:00,80.7,71.2,29.79,SW,226,0.0,0.0,73,0.00,,---,0.00,343.00,VWS V14.01,2013-07-20 12:37:00,
2013-07-20 08:42:00,80.7,71.2,29.79,SW,220,0.0,0.0,73,0.00,,---,0.00,223.00,VWS V14.01,2013-07-20 12:42:00,
2013-07-20 08:47:00,80.9,71.4,29.79,SSW,192,0.0,0.0,73,0.00,,---,0.00,232.00,VWS V14.01,2013-07-20 12:47:00,
2013-07-20 08:52:00,80.6,71.2,29.79,WSW,253,0.0,0.0,73,0.00,,---,0.00,267.00,VWS V14.01,2013-07-20 12:52:00,
2013-07-20 08:57:00,80.9,71.4,29.78,SSW,213,0.0,0.0,73,0.00,,---,0.00,308.00,VWS V14.01,2013-07-20 12:57:00,
2013-07-20 09:02:00,81.6,72.1,29.78,NW,304,0.0,0.0,73,0.00,,---,0.00,612.00,VWS V14.01,2013-07-20 13:02:00,
2013-07-20 09:07:00,82.1,71.3,29.78,WNW,293,0.0,0.0,70,0.00,,---,0.00,313.00,VWS V14.01,2013-07-20 13:07:00,
2013-07-20 09:12:00,82.7,72.3,29.78,SW,215,0.0,0.0,71,0.00,,---,0.00,221.00,VWS V14.01,2013-07-20 13:12:00,
2013-07-20 09:17:00,82.1,71.8,29.78,SSW,204,0.0,0.0,71,0.00,,---,0.00,292.00,VWS V14.01,2013-07-20 13:17:00,
2013-07-20 09:22:00,82.2,71.4,29.79,WNW,300,0.0,0.0,70,0.00,,---,0.00,294.00,VWS V14.01,2013-07-20 13:22:00,
2013-07-20 09:26:00,82.6,71.8,29.79,South,182,0.0,0.0,70,0.00,,---,0.00,371.00,VWS V14.01,2013-07-20 13:26:00,
2013-07-20 09:31:00,82.6,71.8,29.78,WSW,256,0.0,0.0,70,0.00,,---,0.00,308.00,VWS V14.01,2013-07-20 13:31:00,
2013-07-20 09:36:00,82.5,72.2,29.78,SSW,211,0.0,0.0,71,0.00,,---,0.00,276.00,VWS V14.01,2013-07-20 13:36:00,
2013-07-20 09:41:00,82.6,72.2,29.78,NW,311,0.0,0.0,71,0.00,,---,0.00,315.00,VWS V14.01,2013-07-20 13:41:00,
2013-07-20 09:46:00,83.2,72.4,29.78,SW,217,0.0,0.0,70,0.00,,---,0.00,274.00,VWS V14.01,2013-07-20 13:46:00,
2013-07-20 09:51:00,83.5,72.3,29.78,SSW,211,0.0,0.0,69,0.00,,---,0.00,469.00,VWS V14.01,2013-07-20 13:51:00,
2013-07-20 09:56:00,83.9,72.2,29.79,WNW,298,0.0,0.0,68,0.00,,---,0.00,640.00,VWS V14.01,2013-07-20 13:56:00,
2013-07-20 10:01:00,84.0,72.3,29.79,WSW,246,0.0,0.0,68,0.00,,---,0.00,290.00,VWS V14.01,2013-07-20 14:01:00,
2013-07-20 10:06:00,83.9,72.2,29.79,WSW,257,0.0,0.0,68,0.00,,---,0.00,793.00,VWS V14.01,2013-07-20 14:06:00,
2013-07-20 10:11:00,84.8,71.7,29.79,West,263,0.0,0.0,65,0.00,,---,0.00,490.00,VWS V14.01,2013-07-20 14:11:00,
2013-07-20 10:16:00,85.2,72.1,29.79,South,181,0.0,0.0,65,0.00,,---,0.00,722.00,VWS V14.01,2013-07-20 14:16:00,
2013-07-20 10:21:00,85.2,72.1,29.79,SW,224,0.0,0.0,65,0.00,,---,0.00,436.00,VWS V14.01,2013-07-20 14:21:00,
2013-07-20 10:26:00,85.0,71.9,29.79,SSW,204,0.0,0.0,65,0.00,,---,0.00,686.00,VWS V14.01,2013-07-20 14:26:00,
2013-07-20 10:31:00,85.4,72.3,29.79,WSW,248,0.0,0.0,65,0.00,,---,0.00,635.00,VWS V14.01,2013-07-20 14:31:00,
2013-07-20 10:36:00,85.0,71.9,29.79,West,269,0.0,0.0,65,0.00,,---,0.00,816.00,VWS V14.01,2013-07-20 14:36:00,
2013-07-20 10:41:00,85.3,71.8,29.78,WSW,247,0.0,0.0,64,0.00,,---,0.00,824.00,VWS V14.01,2013-07-20 14:41:00,
2013-07-20 10:46:00,85.9,72.3,29.78,SSW,213,0.0,0.0,64,0.00,,---,0.00,817.00,VWS V14.01,2013-07-20 14:46:00,
2013-07-20 10:51:00,86.8,72.7,29.78,SW,217,0.0,0.0,63,0.00,,---,0.00,819.00,VWS V14.01,2013-07-20 14:51:00,
2013-07-20 10:56:00,87.6,73.0,29.78,West,259,0.0,0.0,62,0.00,,---,0.00,909.00,VWS V14.01,2013-07-20 14:56:00,
2013-07-20 11:01:00,88.7,73.0,29.78,SW,234,0.0,0.0,60,0.00,,---,0.00,724.00,VWS V14.01,2013-07-20 15:01:00,
2013-07-20 11:06:00,87.6,73.0,29.78,SW,217,0.0,0.0,62,0.00,,---,0.00,652.00,VWS V14.01,2013-07-20 15:06:00,
2013-07-20 11:11:00,87.8,72.7,29.78,SSW,201,0.0,0.0,61,0.00,,---,0.00,872.00,VWS V14.01,2013-07-20 15:11:00,
2013-07-20 11:16:00,87.0,71.9,29.77,SSW,209,0.0,0.0,61,0.00,,---,0.00,696.00,VWS V14.01,2013-07-20 15:16:00,
2013-07-20 11:21:00,86.2,72.1,29.76,WSW,237,0.0,0.0,63,0.00,,---,0.00,846.00,VWS V14.01,2013-07-20 15:21:00,
2013-07-20 11:26:00,87.4,72.8,29.77,SSW,205,0.0,0.0,62,0.00,,---,0.00,821.00,VWS V14.01,2013-07-20 15:26:00,
2013-07-20 11:31:00,88.4,72.8,29.77,West,277,0.0,0.0,60,0.00,,---,0.00,821.00,VWS V14.01,2013-07-20 15:31:00,
2013-07-20 11:36:00,88.6,72.4,29.76,South,174,0.0,0.0,59,0.00,,---,0.00,826.00,VWS V14.01,2013-07-20 15:36:00,
2013-07-20 11:41:00,88.0,72.9,29.76,NW,304,0.0,0.0,61,0.00,,---,0.00,870.00,VWS V14.01,2013-07-20 15:41:00,
2013-07-20 11:46:00,89.0,72.8,29.76,SW,232,0.0,0.0,59,0.00,,---,0.00,926.00,VWS V14.01,2013-07-20 15:46:00,
2013-07-20 11:51:00,89.5,72.8,29.76,WNW,285,0.0,0.0,58,0.00,,---,0.00,1063.00,VWS V14.01,2013-07-20 15:51:00,
2013-07-20 11:56:00,88.7,72.5,29.76,WNW,300,0.0,0.0,59,0.00,,---,0.00,504.00,VWS V14.01,2013-07-20 15:56:00,
2013-07-20 12:01:00,88.2,72.1,29.76,WSW,247,0.0,0.0,59,0.00,,---,0.00,501.00,VWS V14.01,2013-07-20 16:01:00,
2013-07-20 12:06:00,88.5,72.8,29.75,SSW,198,0.0,0.0,60,0.00,,---,0.00,715.00,VWS V14.01,2013-07-20 16:06:00,
2013-07-20 12:11:00,88.9,72.2,29.75,South,171,0.0,0.0,58,0.00,,---,0.00,715.00,VWS V14.01,2013-07-20 16:11:00,
2013-07-20 12:16:00,88.6,72.9,29.75,WSW,242,0.0,0.0,60,0.00,,---,0.00,348.00,VWS V14.01,2013-07-20 16:16:00,
2013-07-20 12:21:00,87.8,72.2,29.75,SSW,198,0.0,0.0,60,0.00,,---,0.00,466.00,VWS V14.01,2013-07-20 16:21:00,
2013-07-20 12:26:00,87.8,73.2,29.75,NW,313,0.0,0.0,62,0.00,,---,0.00,316.00,VWS V14.01,2013-07-20 16:26:00,
2013-07-20 12:31:00,88.6,73.4,29.75,WSW,246,0.0,0.0,61,0.00,,---,0.00,967.00,VWS V14.01,2013-07-20 16:31:00,
2013-07-20 12:36:00,89.2,73.5,29.74,SSW,195,0.0,0.0,60,0.00,,---,0.00,947.00,VWS V14.01,2013-07-20 16:36:00,
2013-07-20 12:41:00,89.7,73.0,29.74,SW,230,0.0,0.0,58,0.00,,---,0.00,963.00,VWS V14.01,2013-07-20 16:41:00,
2013-07-20 12:46:00,90.0,73.8,29.74,NE,40,0.0,0.0,59,0.00,,---,0.00,963.00,VWS V14.01,2013-07-20 16:46:00,
2013-07-20 12:51:00,90.8,74.5,29.74,SSW,207,0.0,0.0,59,0.00,,---,0.00,911.00,VWS V14.01,2013-07-20 16:51:00,
2013-07-20 12:56:00,90.3,73.5,29.73,West,272,0.0,0.0,58,0.00,,---,0.00,1016.00,VWS V14.01,2013-07-20 16:56:00,
2013-07-20 13:01:00,91.3,75.0,29.73,WSW,242,0.0,0.0,59,0.00,,---,0.00,949.00,VWS V14.01,2013-07-20 17:01:00,
2013-07-20 13:06:00,91.1,74.3,29.73,WSW,238,0.0,0.0,58,0.00,,---,0.00,935.00,VWS V14.01,2013-07-20 17:06:00,
2013-07-20 13:11:00,91.3,74.5,29.73,SW,229,0.0,0.0,58,0.00,,---,0.00,1034.00,VWS V14.01,2013-07-20 17:11:00,
2013-07-20 13:16:00,89.9,73.2,29.73,SSW,208,0.0,0.0,58,0.00,,---,0.00,410.00,VWS V14.01,2013-07-20 17:16:00,
2013-07-20 13:21:00,89.4,72.7,29.73,WNW,301,0.0,0.0,58,0.00,,---,0.00,434.00,VWS V14.01,2013-07-20 17:21:00,
2013-07-20 13:26:00,90.5,73.7,29.73,West,279,0.0,0.0,58,0.00,,---,0.00,343.00,VWS V14.01,2013-07-20 17:26:00,
2013-07-20 13:31:00,90.8,74.0,29.74,SW,231,0.0,0.0,58,0.00,,---,0.00,353.00,VWS V14.01,2013-07-20 17:31:00,
2013-07-20 13:36:00,90.3,72.5,29.74,WSW,242,0.0,0.0,56,0.00,,---,0.00,383.00,VWS V14.01,2013-07-20 17:36:00,
2013-07-20 13:41:00,89.5,72.8,29.74,West,275,0.0,0.0,58,0.00,,---,0.00,1051.00,VWS V14.01,2013-07-20 17:41:00,
2013-07-20 13:46:00,90.9,73.6,29.74,NNW,346,0.0,0.0,57,0.00,,---,0.00,816.00,VWS V14.01,2013-07-20 17:46:00,
2013-07-20 13:51:00,91.9,74.0,29.74,WNW,285,0.0,0.0,56,0.00,,---,0.00,919.00,VWS V14.01,2013-07-20 17:51:00,
2013-07-20 13:56:00,92.0,74.6,29.74,SW,232,0.0,0.0,57,0.00,,---,0.00,900.00,VWS V14.01,2013-07-20 17:56:00,
2013-07-20 14:01:00,92.4,73.9,29.74,West,271,0.0,0.0,55,0.00,,---,0.00,895.00,VWS V14.01,2013-07-20 18:01:00,
2013-07-20 14:06:00,91.5,73.6,29.74,West,266,0.0,0.0,56,0.00,,---,0.00,916.00,VWS V14.01,2013-07-20 18:06:00,
2013-07-20 14:11:00,92.2,74.2,29.74,West,273,0.0,0.0,56,0.00,,---,0.00,856.00,VWS V14.01,2013-07-20 18:11:00,
2013-07-20 14:16:00,92.5,74.5,29.74,WNW,301,0.0,0.0,56,0.00,,---,0.00,817.00,VWS V14.01,2013-07-20 18:16:00,
2013-07-20 14:21:00,92.4,74.4,29.74,SSW,210,0.0,0.0,56,0.00,,---,0.00,853.00,VWS V14.01,2013-07-20 18:21:00,
2013-07-20 14:26:00,92.2,74.2,29.74,West,276,0.0,0.0,56,0.00,,---,0.00,169.00,VWS V14.01,2013-07-20 18:26:00,
2013-07-20 14:32:00,91.7,74.3,29.74,WNW,285,0.0,0.0,57,0.00,,---,0.00,299.00,VWS V14.01,2013-07-20 18:32:00,
2013-07-20 14:37:00,92.0,74.1,29.73,NW,315,0.0,0.0,56,0.00,,---,0.00,448.00,VWS V14.01,2013-07-20 18:37:00,
2013-07-20 14:42:00,92.8,74.8,29.73,SW,221,0.0,0.0,56,0.00,,---,0.00,962.00,VWS V14.01,2013-07-20 18:42:00,
2013-07-20 14:47:00,93.2,74.6,29.73,SW,219,0.0,0.0,55,0.00,,---,0.00,250.00,VWS V14.01,2013-07-20 18:47:00,
2013-07-20 14:52:00,91.8,74.4,29.73,NE,48,0.0,0.0,57,0.00,,---,0.00,239.00,VWS V14.01,2013-07-20 18:52:00,
2013-07-20 14:57:00,90.9,74.1,29.73,West,273,0.0,0.0,58,0.00,,---,0.00,299.00,VWS V14.01,2013-07-20 18:57:00,
2013-07-20 15:02:00,92.8,75.3,29.72,WSW,253,0.0,0.0,57,0.00,,---,0.00,698.00,VWS V14.01,2013-07-20 19:02:00,
2013-07-20 15:07:00,93.5,74.9,29.72,WSW,242,0.0,0.0,55,0.00,,---,0.00,671.00,VWS V14.01,2013-07-20 19:07:00,
2013-07-20 15:12:00,91.5,74.1,29.72,WNW,303,0.0,0.0,57,0.00,,---,0.00,287.00,VWS V14.01,2013-07-20 19:12:00,
2013-07-20 15:17:00,92.3,74.9,29.72,NW,319,0.0,0.0,57,0.00,,---,0.00,805.00,VWS V14.01,2013-07-20 19:17:00,
2013-07-20 15:22:00,93.5,74.4,29.72,SW,217,0.0,0.0,54,0.00,,---,0.00,803.00,VWS V14.01,2013-07-20 19:22:00,
2013-07-20 15:27:00,93.2,74.1,29.72,SSW,198,0.0,0.0,54,0.00,,---,0.00,744.00,VWS V14.01,2013-07-20 19:27:00,
2013-07-20 15:32:00,92.9,73.8,29.72,NW,309,0.0,0.0,54,0.00,,---,0.00,260.00,VWS V14.01,2013-07-20 19:32:00,
2013-07-20 15:37:00,92.9,74.9,29.72,West,271,0.0,0.0,56,0.00,,---,0.00,424.00,VWS V14.01,2013-07-20 19:37:00,
2013-07-20 15:42:00,92.8,74.8,29.72,WNW,286,0.0,0.0,56,0.00,,---,0.00,218.00,VWS V14.01,2013-07-20 19:42:00,
2013-07-20 15:47:00,92.7,74.7,29.72,South,190,0.0,0.0,56,0.00,,---,0.00,717.00,VWS V14.01,2013-07-20 19:47:00,
2013-07-20 15:53:00,93.1,74.6,29.72,West,279,0.0,0.0,55,0.00,,---,0.00,714.00,VWS V14.01,2013-07-20 19:53:00,
2013-07-20 15:58:00,93.5,73.2,29.72,WSW,258,0.0,0.0,52,0.00,,---,0.00,712.00,VWS V14.01,2013-07-20 19:58:00,
2013-07-20 16:03:00,93.8,73.5,29.72,West,277,0.0,0.0,52,0.00,,---,0.00,684.00,VWS V14.01,2013-07-20 20:03:00,
2013-07-20 16:08:00,93.8,71.8,29.72,WNW,288,0.0,0.0,49,0.00,,---,0.00,696.00,VWS V14.01,2013-07-20 20:08:00,
2013-07-20 16:13:00,93.5,72.1,29.72,ESE,121,0.0,0.0,50,0.00,,---,0.00,250.00,VWS V14.01,2013-07-20 20:13:00,
2013-07-20 16:18:00,93.6,72.2,29.72,SW,229,0.0,0.0,50,0.00,,---,0.00,758.00,VWS V14.01,2013-07-20 20:18:00,
2013-07-20 16:24:00,93.0,72.2,29.72,West,264,0.0,0.0,51,0.00,,---,0.00,359.00,VWS V14.01,2013-07-20 20:24:00,
2013-07-20 16:29:00,92.4,72.2,29.72,SW,223,0.0,0.0,52,0.00,,---,0.00,353.00,VWS V14.01,2013-07-20 20:29:00,
2013-07-20 16:34:00,92.2,72.1,29.72,NW,316,0.0,0.0,52,0.00,,---,0.00,230.00,VWS V14.01,2013-07-20 20:34:00,
2013-07-20 16:39:00,92.0,71.9,29.72,South,180,0.0,0.0,52,0.00,,---,0.00,236.00,VWS V14.01,2013-07-20 20:39:00,
2013-07-20 16:44:00,92.5,72.3,29.72,West,262,0.0,0.0,52,0.00,,---,0.00,202.00,VWS V14.01,2013-07-20 20:44:00,
2013-07-20 16:49:00,91.9,71.8,29.72,West,261,0.0,0.0,52,0.00,,---,0.00,260.00,VWS V14.01,2013-07-20 20:49:00,
2013-07-20 16:54:00,91.7,72.2,29.71,SW,229,0.0,0.0,53,0.00,,---,0.00,209.00,VWS V14.01,2013-07-20 20:54:00,
2013-07-20 16:59:00,91.6,72.1,29.71,NW,310,0.0,0.0,53,0.00,,---,0.00,612.00,VWS V14.01,2013-07-20 20:59:00,
2013-07-20 17:04:00,92.5,72.3,29.71,WNW,287,0.0,0.0,52,0.00,,---,0.00,387.00,VWS V14.01,2013-07-20 21:04:00,
2013-07-20 17:09:00,92.8,73.2,29.71,WNW,300,0.0,0.0,53,0.00,,---,0.00,478.00,VWS V14.01,2013-07-20 21:09:00,
2013-07-20 17:15:00,93.2,73.0,29.71,NW,308,0.0,0.0,52,0.00,,---,0.00,480.00,VWS V14.01,2013-07-20 21:15:00,
2013-07-20 17:20:00,93.3,73.1,29.71,West,277,0.0,0.0,52,0.00,,---,0.00,469.00,VWS V14.01,2013-07-20 21:20:00,
2013-07-20 17:25:00,93.0,71.6,29.71,WNW,298,0.0,0.0,50,0.00,,---,0.00,485.00,VWS V14.01,2013-07-20 21:25:00,
2013-07-20 17:30:00,93.2,72.4,29.71,NW,315,0.0,0.0,51,0.00,,---,0.00,155.00,VWS V14.01,2013-07-20 21:30:00,
2013-07-20 17:35:00,92.5,72.3,29.71,SW,234,0.0,0.0,52,0.00,,---,0.00,404.00,VWS V14.01,2013-07-20 21:35:00,
2013-07-20 17:40:00,92.1,72.5,29.72,WNW,284,0.0,0.0,53,0.00,,---,0.00,186.00,VWS V14.01,2013-07-20 21:40:00,
2013-07-20 17:45:00,92.5,72.9,29.71,SW,222,0.0,0.0,53,0.00,,---,0.00,151.00,VWS V14.01,2013-07-20 21:45:00,
2013-07-20 17:50:00,92.2,72.6,29.71,South,175,0.0,0.0,53,0.00,,---,0.00,355.00,VWS V14.01,2013-07-20 21:50:00,
2013-07-20 17:55:00,91.8,72.2,29.71,NW,310,0.0,0.0,53,0.00,,---,0.00,47.00,VWS V14.01,2013-07-20 21:55:00,
2013-07-20 18:00:00,91.4,71.9,29.71,SW,218,0.0,0.0,53,0.00,,---,0.00,42.00,VWS V14.01,2013-07-20 22:00:00,
2013-07-20 18:05:00,91.4,72.4,29.72,NNW,332,0.0,0.0,54,0.00,,---,0.00,67.00,VWS V14.01,2013-07-20 22:05:00,
2013-07-20 18:10:00,89.9,75.1,29.73,NW,317,0.0,0.0,62,0.03,,---,0.03,330.00,VWS V14.01,2013-07-20 22:10:00,
2013-07-20 18:15:00,86.7,75.8,29.72,WNW,289,0.0,0.0,70,0.04,,---,0.04,378.00,VWS V14.01,2013-07-20 22:15:00,
2013-07-20 18:20:00,86.1,75.6,29.72,NW,310,0.0,0.0,71,0.04,,---,0.04,297.00,VWS V14.01,2013-07-20 22:20:00,
2013-07-20 18:25:00,86.5,75.6,29.72,NNW,344,0.0,0.0,70,0.04,,---,0.04,272.00,VWS V14.01,2013-07-20 22:25:00,
2013-07-20 18:30:00,86.8,73.6,29.72,WNW,286,0.0,0.0,65,0.04,,---,0.04,155.00,VWS V14.01,2013-07-20 22:30:00,
2013-07-20 18:35:00,87.2,74.9,29.72,NNW,330,0.0,0.0,67,0.04,,---,0.04,86.00,VWS V14.01,2013-07-20 22:35:00,
2013-07-20 18:41:00,88.0,75.2,29.73,WNW,294,0.0,0.0,66,0.04,,---,0.04,90.00,VWS V14.01,2013-07-20 22:41:00,
2013-07-20 18:46:00,88.0,73.8,29.73,WNW,298,0.0,0.0,63,0.04,,---,0.04,65.00,VWS V14.01,2013-07-20 22:46:00,
2013-07-20 18:51:00,87.4,73.7,29.74,WNW,302,0.0,0.0,64,0.04,,---,0.04,60.00,VWS V14.01,2013-07-20 22:51:00,
2013-07-20 18:56:00,87.4,74.7,29.73,WNW,294,0.0,0.0,66,0.04,,---,0.04,47.00,VWS V14.01,2013-07-20 22:56:00,
2013-07-20 19:01:00,87.4,74.2,29.74,WNW,290,0.0,0.0,65,0.04,,---,0.04,32.00,VWS V14.01,2013-07-20 23:01:00,
2013-07-20 19:06:00,86.1,72.5,29.74,ESE,102,0.0,0.0,64,0.04,,---,0.04,26.00,VWS V14.01,2013-07-20 23:06:00,
2013-07-20 19:11:00,83.8,72.6,29.74,SW,226,0.0,0.0,69,0.02,,---,0.04,28.00,VWS V14.01,2013-07-20 23:11:00,
2013-07-20 19:16:00,82.4,72.1,29.74,SSW,196,0.0,0.0,71,0.02,,---,0.04,30.00,VWS V14.01,2013-07-20 23:16:00,
2013-07-20 19:21:00,81.1,72.4,29.75,WSW,242,0.0,0.0,75,0.00,,---,0.04,32.00,VWS V14.01,2013-07-20 23:21:00,
2013-07-20 19:26:00,80.8,72.5,29.75,SSW,198,0.0,0.0,76,0.00,,---,0.04,30.00,VWS V14.01,2013-07-20 23:26:00,
2013-07-20 19:31:00,80.2,72.7,29.75,SSW,206,0.0,0.0,78,0.00,,---,0.04,23.00,VWS V14.01,2013-07-20 23:31:00,
2013-07-20 19:37:00,81.1,72.8,29.76,WSW,244,0.0,0.0,76,0.00,,---,0.04,11.00,VWS V14.01,2013-07-20 23:37:00,
2013-07-20 19:42:00,81.0,73.5,29.76,WSW,244,0.0,0.0,78,0.00,,---,0.04,7.00,VWS V14.01,2013-07-20 23:42:00,
2013-07-20 19:47:00,81.0,73.1,29.76,SW,225,0.0,0.0,77,0.00,,---,0.04,5.00,VWS V14.01,2013-07-20 23:47:00,
2013-07-20 19:52:00,80.3,73.2,29.76,SW,225,0.0,0.0,79,0.00,,---,0.04,0.00,VWS V14.01,2013-07-20 23:52:00,
2013-07-20 19:57:00,80.2,73.8,29.77,SW,225,0.0,0.0,81,0.00,,---,0.04,0.00,VWS V14.01,2013-07-20 23:57:00,
2013-07-20 20:02:00,80.1,73.4,29.77,SW,225,0.0,0.0,80,0.00,,---,0.04,0.00,VWS V14.01,2013-07-21 00:02:00,
2013-07-20 20:07:00,79.8,72.7,29.77,SW,221,0.0,0.0,79,0.00,,---,0.04,0.00,VWS V14.01,2013-07-21 00:07:00,
2013-07-20 20:12:00,80.0,72.5,29.77,WSW,237,0.0,0.0,78,0.00,,---,0.04,0.00,VWS V14.01,2013-07-21 00:12:00,
2013-07-20 20:17:00,79.9,72.4,29.77,South,177,0.0,0.0,78,0.00,,---,0.04,0.00,VWS V14.01,2013-07-21 00:17:00,
2013-07-20 20:22:00,79.9,73.2,29.77,East,92,0.0,0.0,80,0.00,,---,0.04,0.00,VWS V14.01,2013-07-21 00:22:00,
2013-07-20 20:28:00,79.9,72.4,29.77,SSW,213,0.0,0.0,78,0.00,,---,0.04,0.00,VWS V14.01,2013-07-21 00:28:00,
2013-07-20 20:33:00,79.9,72.4,29.77,WSW,250,0.0,0.0,78,0.00,,---,0.04,0.00,VWS V14.01,2013-07-21 00:33:00,
2013-07-20 20:38:00,79.9,72.8,29.78,WSW,238,0.0,0.0,79,0.00,,---,0.04,0.00,VWS V14.01,2013-07-21 00:38:00,
2013-07-20 20:43:00,79.9,72.8,29.78,WSW,240,0.0,0.0,79,0.00,,---,0.04,0.00,VWS V14.01,2013-07-21 00:43:00,
2013-07-20 20:48:00,79.7,72.2,29.78,SSW,198,0.0,0.0,78,0.00,,---,0.04,0.00,VWS V14.01,2013-07-21 00:48:00,
2013-07-20 20:54:00,79.4,71.6,29.79,South,190,0.0,0.0,77,0.00,,---,0.04,0.00,VWS V14.01,2013-07-21 00:54:00,
2013-07-20 20:59:00,79.2,72.1,29.79,SW,221,0.0,0.0,79,0.00,,---,0.04,0.00,VWS V14.01,2013-07-21 00:59:00,
2013-07-20 21:04:00,78.8,72.1,29.79,SW,221,0.0,0.0,80,0.00,,---,0.04,0.00,VWS V14.01,2013-07-21 01:04:00,
2013-07-20 21:09:00,78.5,71.8,29.79,SW,235,0.0,0.0,80,0.00,,---,0.04,0.00,VWS V14.01,2013-07-21 01:09:00,
2013-07-20 21:14:00,78.4,72.4,29.79,WSW,239,0.0,0.0,82,0.00,,---,0.04,0.00,VWS V14.01,2013-07-21 01:14:00,
2013-07-20 21:19:00,78.0,71.7,29.79,SW,217,0.0,0.0,81,0.00,,---,0.04,0.00,VWS V14.01,2013-07-21 01:19:00,
2013-07-20 21:24:00,77.9,71.6,29.79,SW,230,0.0,0.0,81,0.00,,---,0.04,0.00,VWS V14.01,2013-07-21 01:24:00,
2013-07-20 21:29:00,78.3,72.0,29.79,SW,230,0.0,0.0,81,0.00,,---,0.04,0.00,VWS V14.01,2013-07-21 01:29:00,
2013-07-20 21:34:00,78.8,72.1,29.79,SW,230,0.0,0.0,80,0.00,,---,0.04,0.00,VWS V14.01,2013-07-21 01:34:00,
2013-07-20 21:39:00,78.3,71.6,29.79,SW,230,0.0,0.0,80,0.00,,---,0.04,0.00,VWS V14.01,2013-07-21 01:39:00,
2013-07-20 21:44:00,77.9,72.0,29.79,SW,230,0.0,0.0,82,0.00,,---,0.04,0.00,VWS V14.01,2013-07-21 01:44:00,
2013-07-20 21:50:00,77.7,71.8,29.79,SW,230,0.0,0.0,82,0.00,,---,0.04,0.00,VWS V14.01,2013-07-21 01:50:00,
2013-07-20 21:55:00,77.6,71.7,29.79,SW,230,0.0,0.0,82,0.00,,---,0.04,0.00,VWS V14.01,2013-07-21 01:55:00,
2013-07-20 22:00:00,77.9,72.3,29.80,SW,230,0.0,0.0,83,0.00,,---,0.04,0.00,VWS V14.01,2013-07-21 02:00:00,
2013-07-20 22:05:00,77.5,71.9,29.80,SW,230,0.0,0.0,83,0.00,,---,0.04,0.00,VWS V14.01,2013-07-21 02:05:00,
2013-07-20 22:10:00,77.8,72.2,29.79,SW,230,0.0,0.0,83,0.00,,---,0.04,0.00,VWS V14.01,2013-07-21 02:10:00,
2013-07-20 22:15:00,78.2,72.6,29.79,SW,230,0.0,0.0,83,0.00,,---,0.04,0.00,VWS V14.01,2013-07-21 02:15:00,
2013-07-20 22:20:00,78.7,72.8,29.80,SW,230,0.0,0.0,82,0.00,,---,0.04,0.00,VWS V14.01,2013-07-21 02:20:00,
2013-07-20 22:25:00,79.1,72.8,29.79,SW,230,0.0,0.0,81,0.00,,---,0.04,0.00,VWS V14.01,2013-07-21 02:25:00,
2013-07-20 22:30:00,78.7,72.0,29.79,SW,230,0.0,0.0,80,0.00,,---,0.04,0.00,VWS V14.01,2013-07-21 02:30:00,
2013-07-20 22:35:00,79.1,72.8,29.79,SW,230,0.0,0.0,81,0.00,,---,0.04,0.00,VWS V14.01,2013-07-21 02:35:00,
2013-07-20 22:40:00,79.8,72.3,29.79,SW,230,0.0,0.0,78,0.00,,---,0.04,0.00,VWS V14.01,2013-07-21 02:40:00,
2013-07-20 22:45:00,79.4,71.6,29.80,SW,230,0.0,0.0,77,0.00,,---,0.04,0.00,VWS V14.01,2013-07-21 02:45:00,
2013-07-20 22:50:00,78.9,72.2,29.79,SW,230,0.0,0.0,80,0.00,,---,0.04,0.00,VWS V14.01,2013-07-21 02:50:00,
2013-07-20 22:55:00,78.7,72.4,29.80,SW,230,0.0,0.0,81,0.00,,---,0.04,0.00,VWS V14.01,2013-07-21 02:55:00,
2013-07-20 23:00:00,78.7,72.8,29.80,SW,230,0.0,0.0,82,0.00,,---,0.04,0.00,VWS V14.01,2013-07-21 03:00:00,
2013-07-20 23:05:00,79.2,72.5,29.81,SW,230,0.0,0.0,80,0.00,,---,0.04,0.00,VWS V14.01,2013-07-21 03:05:00,
2013-07-20 23:11:00,78.9,72.2,29.81,SW,230,0.0,0.0,80,0.00,,---,0.04,0.00,VWS V14.01,2013-07-21 03:11:00,
2013-07-20 23:16:00,78.6,71.9,29.81,SW,230,0.0,0.0,80,0.00,,---,0.04,0.00,VWS V14.01,2013-07-21 03:16:00,
2013-07-20 23:21:00,79.2,72.1,29.81,SW,230,0.0,0.0,79,0.00,,---,0.04,0.00,VWS V14.01,2013-07-21 03:21:00,
2013-07-20 23:26:00,78.9,72.2,29.81,SW,230,0.0,0.0,80,0.00,,---,0.04,0.00,VWS V14.01,2013-07-21 03:26:00,
2013-07-20 23:31:00,78.7,72.4,29.82,SW,230,0.0,0.0,81,0.00,,---,0.04,0.00,VWS V14.01,2013-07-21 03:31:00,
2013-07-20 23:36:00,78.7,72.4,29.82,SW,230,0.0,0.0,81,0.00,,---,0.04,0.00,VWS V14.01,2013-07-21 03:36:00,
2013-07-20 23:41:00,78.8,72.5,29.82,SW,230,0.0,0.0,81,0.00,,---,0.04,0.00,VWS V14.01,2013-07-21 03:41:00,
2013-07-20 23:46:00,79.1,72.4,29.82,SW,230,0.0,0.0,80,0.00,,---,0.04,0.00,VWS V14.01,2013-07-21 03:46:00,
2013-07-20 23:51:00,78.8,71.7,29.82,SW,230,0.0,0.0,79,0.00,,---,0.04,0.00,VWS V14.01,2013-07-21 03:51:00,
2013-07-20 23:56:00,78.9,71.1,29.82,NNW,339,0.0,0.0,77,0.00,,---,0.04,0.00,VWS V14.01,2013-07-21 03:56:00,